Year,Month,Day,Hour,Minute,Value (Times are PST for temperature in C)
2014,09,12,00,00,10.70
2014,09,12,00,01,10.70
2014,09,12,00,02,10.60
2014,09,12,00,03,10.60
2014,09,12,00,04,10.50
2014,09,12,00,05,10.50
2014,09,12,00,06,10.50
2014,09,12,00,07,10.40
2014,09,12,00,08,10.40
2014,09,12,00,09,10.30
2014,09,12,00,10,10.30
2014,09,12,00,11,10.30
2014,09,12,00,12,10.20
2014,09,12,00,13,10.20
2014,09,12,00,14,10.20
2014,09,12,00,15,10.20
2014,09,12,00,16,10.10
2014,09,12,00,17,10.10
2014,09,12,00,18,10.10
2014,09,12,00,19,10.10
2014,09,12,00,20,10.10
2014,09,12,00,21,10.10
2014,09,12,00,22,10.10
2014,09,12,00,23,10.00
2014,09,12,00,24,10.00
2014,09,12,00,25,10.00
2014,09,12,00,26,10.00
2014,09,12,00,27,10.00
2014,09,12,00,28,9.90
2014,09,12,00,29,9.90
2014,09,12,00,30,9.90
2014,09,12,00,31,9.90
2014,09,12,00,32,9.90
2014,09,12,00,33,9.80
2014,09,12,00,34,9.80
2014,09,12,00,35,9.80
2014,09,12,00,36,9.70
2014,09,12,00,37,9.70
2014,09,12,00,38,9.70
2014,09,12,00,39,9.60
2014,09,12,00,40,9.60
2014,09,12,00,41,9.60
2014,09,12,00,42,9.50
2014,09,12,00,43,9.50
2014,09,12,00,44,9.40
2014,09,12,00,45,9.40
2014,09,12,00,46,9.40
2014,09,12,00,47,9.30
2014,09,12,00,48,9.30
2014,09,12,00,49,9.30
2014,09,12,00,50,9.30
2014,09,12,00,51,9.30
2014,09,12,00,52,9.20
2014,09,12,00,53,9.20
2014,09,12,00,54,9.10
2014,09,12,00,55,9.10
2014,09,12,00,56,9.10
2014,09,12,00,57,9.10
2014,09,12,00,58,9.00
2014,09,12,00,59,9.00
2014,09,12,01,00,8.90
2014,09,12,01,01,8.90
2014,09,12,01,02,8.90
2014,09,12,01,03,8.80
2014,09,12,01,04,8.80
2014,09,12,01,05,8.80
2014,09,12,01,06,8.80
2014,09,12,01,07,8.80
2014,09,12,01,08,8.80
2014,09,12,01,09,8.80
2014,09,12,01,10,8.80
2014,09,12,01,11,8.80
2014,09,12,01,12,8.80
2014,09,12,01,13,8.80
2014,09,12,01,14,8.80
2014,09,12,01,15,8.80
2014,09,12,01,16,8.80
2014,09,12,01,17,8.70
2014,09,12,01,18,8.70
2014,09,12,01,19,8.70
2014,09,12,01,20,8.70
2014,09,12,01,21,8.70
2014,09,12,01,22,8.70
2014,09,12,01,23,8.70
2014,09,12,01,24,8.70
2014,09,12,01,25,8.70
2014,09,12,01,26,8.70
2014,09,12,01,27,8.60
2014,09,12,01,28,8.60
2014,09,12,01,29,8.60
2014,09,12,01,30,8.60
2014,09,12,01,31,8.60
2014,09,12,01,32,8.60
2014,09,12,01,33,8.60
2014,09,12,01,34,8.60
2014,09,12,01,35,8.50
2014,09,12,01,36,8.50
2014,09,12,01,37,8.50
2014,09,12,01,38,8.50
2014,09,12,01,39,8.50
2014,09,12,01,40,8.40
2014,09,12,01,41,8.30
2014,09,12,01,42,8.30
2014,09,12,01,43,8.20
2014,09,12,01,44,8.20
2014,09,12,01,45,8.20
2014,09,12,01,46,8.10
2014,09,12,01,47,8.10
2014,09,12,01,48,8.10
2014,09,12,01,49,8.10
2014,09,12,01,50,8.10
2014,09,12,01,51,8.10
2014,09,12,01,52,8.00
2014,09,12,01,53,8.00
2014,09,12,01,54,8.00
2014,09,12,01,55,8.00
2014,09,12,01,56,7.90
2014,09,12,01,57,7.90
2014,09,12,01,58,7.90
2014,09,12,01,59,7.90
2014,09,12,02,00,7.90
2014,09,12,02,01,7.90
2014,09,12,02,02,7.90
2014,09,12,02,03,7.90
2014,09,12,02,04,7.90
2014,09,12,02,05,7.90
2014,09,12,02,06,7.90
2014,09,12,02,07,7.80
2014,09,12,02,08,7.80
2014,09,12,02,09,7.80
2014,09,12,02,10,7.80
2014,09,12,02,11,7.70
2014,09,12,02,12,7.70
2014,09,12,02,13,7.70
2014,09,12,02,14,7.70
2014,09,12,02,15,7.60
2014,09,12,02,16,7.60
2014,09,12,02,17,7.60
2014,09,12,02,18,7.60
2014,09,12,02,19,7.50
2014,09,12,02,20,7.50
2014,09,12,02,21,7.40
2014,09,12,02,22,7.40
2014,09,12,02,23,7.40
2014,09,12,02,24,7.40
2014,09,12,02,25,7.40
2014,09,12,02,26,7.40
2014,09,12,02,27,7.30
2014,09,12,02,28,7.20
2014,09,12,02,29,7.20
2014,09,12,02,30,7.20
2014,09,12,02,31,7.20
2014,09,12,02,32,7.20
2014,09,12,02,33,7.10
2014,09,12,02,34,7.10
2014,09,12,02,35,7.10
2014,09,12,02,36,7.10
2014,09,12,02,37,7.00
2014,09,12,02,38,7.00
2014,09,12,02,39,6.90
2014,09,12,02,40,6.90
2014,09,12,02,41,6.90
2014,09,12,02,42,6.90
2014,09,12,02,43,6.90
2014,09,12,02,44,6.90
2014,09,12,02,45,6.90
2014,09,12,02,46,6.80
2014,09,12,02,47,6.80
2014,09,12,02,48,6.80
2014,09,12,02,49,6.80
2014,09,12,02,50,6.80
2014,09,12,02,51,6.80
2014,09,12,02,52,6.80
2014,09,12,02,53,6.80
2014,09,12,02,54,6.80
2014,09,12,02,55,6.70
2014,09,12,02,56,6.70
2014,09,12,02,57,6.70
2014,09,12,02,58,6.70
2014,09,12,02,59,6.70
2014,09,12,03,00,6.70
2014,09,12,03,01,6.70
2014,09,12,03,02,6.70
2014,09,12,03,03,6.70
2014,09,12,03,04,6.80
2014,09,12,03,05,6.80
2014,09,12,03,06,6.80
2014,09,12,03,07,6.80
2014,09,12,03,08,6.80
2014,09,12,03,09,6.80
2014,09,12,03,10,6.80
2014,09,12,03,11,6.80
2014,09,12,03,12,6.80
2014,09,12,03,13,6.80
2014,09,12,03,14,6.80
2014,09,12,03,15,6.80
2014,09,12,03,16,6.80
2014,09,12,03,17,6.80
2014,09,12,03,18,6.80
2014,09,12,03,19,6.80
2014,09,12,03,20,6.80
2014,09,12,03,21,6.80
2014,09,12,03,22,6.80
2014,09,12,03,23,6.80
2014,09,12,03,24,6.70
2014,09,12,03,25,6.70
2014,09,12,03,26,6.70
2014,09,12,03,27,6.70
2014,09,12,03,28,6.70
2014,09,12,03,29,6.60
2014,09,12,03,30,6.60
2014,09,12,03,31,6.60
2014,09,12,03,32,6.60
2014,09,12,03,33,6.60
2014,09,12,03,34,6.60
2014,09,12,03,35,6.60
2014,09,12,03,36,6.60
2014,09,12,03,37,6.60
2014,09,12,03,38,6.50
2014,09,12,03,39,6.50
2014,09,12,03,40,6.50
2014,09,12,03,41,6.50
2014,09,12,03,42,6.50
2014,09,12,03,43,6.50
2014,09,12,03,44,6.50
2014,09,12,03,45,6.40
2014,09,12,03,46,6.40
2014,09,12,03,47,6.40
2014,09,12,03,48,6.40
2014,09,12,03,49,6.40
2014,09,12,03,50,6.40
2014,09,12,03,51,6.30
2014,09,12,03,52,6.30
2014,09,12,03,53,6.30
2014,09,12,03,54,6.30
2014,09,12,03,55,6.30
2014,09,12,03,56,6.30
2014,09,12,03,57,6.30
2014,09,12,03,58,6.30
2014,09,12,03,59,6.30
2014,09,12,04,00,6.30
2014,09,12,04,01,6.30
2014,09,12,04,02,6.30
2014,09,12,04,03,6.30
2014,09,12,04,04,6.30
2014,09,12,04,05,6.30
2014,09,12,04,06,6.20
2014,09,12,04,07,6.20
2014,09,12,04,08,6.20
2014,09,12,04,09,6.20
2014,09,12,04,10,6.20
2014,09,12,04,11,6.20
2014,09,12,04,12,6.20
2014,09,12,04,13,6.20
2014,09,12,04,14,6.20
2014,09,12,04,15,6.20
2014,09,12,04,16,6.20
2014,09,12,04,17,6.10
2014,09,12,04,18,6.10
2014,09,12,04,19,6.10
2014,09,12,04,20,6.10
2014,09,12,04,21,6.10
2014,09,12,04,22,6.10
2014,09,12,04,23,6.10
2014,09,12,04,24,6.10
2014,09,12,04,25,6.10
2014,09,12,04,26,6.10
2014,09,12,04,27,6.10
2014,09,12,04,28,6.00
2014,09,12,04,29,6.00
2014,09,12,04,30,6.00
2014,09,12,04,31,6.00
2014,09,12,04,32,5.90
2014,09,12,04,33,5.90
2014,09,12,04,34,5.90
2014,09,12,04,35,5.90
2014,09,12,04,36,5.90
2014,09,12,04,37,5.80
2014,09,12,04,38,5.80
2014,09,12,04,39,5.80
2014,09,12,04,40,5.80
2014,09,12,04,41,5.80
2014,09,12,04,42,5.80
2014,09,12,04,43,5.80
2014,09,12,04,44,5.80
2014,09,12,04,45,5.80
2014,09,12,04,46,5.80
2014,09,12,04,47,5.80
2014,09,12,04,48,5.80
2014,09,12,04,49,5.80
2014,09,12,04,50,5.80
2014,09,12,04,51,5.80
2014,09,12,04,52,5.80
2014,09,12,04,53,5.70
2014,09,12,04,54,5.80
2014,09,12,04,55,5.70
2014,09,12,04,56,5.70
2014,09,12,04,57,5.70
2014,09,12,04,58,5.70
2014,09,12,04,59,5.70
2014,09,12,05,00,5.70
2014,09,12,05,01,5.70
2014,09,12,05,02,5.60
2014,09,12,05,03,5.60
2014,09,12,05,04,5.60
2014,09,12,05,05,5.60
2014,09,12,05,06,5.60
2014,09,12,05,07,5.60
2014,09,12,05,08,5.50
2014,09,12,05,09,5.50
2014,09,12,05,10,5.50
2014,09,12,05,11,5.50
2014,09,12,05,12,5.40
2014,09,12,05,13,5.40
2014,09,12,05,14,5.40
2014,09,12,05,15,5.40
2014,09,12,05,16,5.30
2014,09,12,05,17,5.30
2014,09,12,05,18,5.30
2014,09,12,05,19,5.30
2014,09,12,05,20,5.30
2014,09,12,05,21,5.30
2014,09,12,05,22,5.30
2014,09,12,05,23,5.30
2014,09,12,05,24,5.30
2014,09,12,05,25,5.30
2014,09,12,05,26,5.30
2014,09,12,05,27,5.30
2014,09,12,05,28,5.30
2014,09,12,05,29,5.30
2014,09,12,05,30,5.30
2014,09,12,05,31,5.30
2014,09,12,05,32,5.30
2014,09,12,05,33,5.30
2014,09,12,05,34,5.30
2014,09,12,05,35,5.30
2014,09,12,05,36,5.30
2014,09,12,05,37,5.30
2014,09,12,05,38,5.30
2014,09,12,05,39,5.20
2014,09,12,05,40,5.20
2014,09,12,05,41,5.20
2014,09,12,05,42,5.20
2014,09,12,05,43,5.10
2014,09,12,05,44,5.10
2014,09,12,05,45,5.10
2014,09,12,05,46,5.10
2014,09,12,05,47,5.00
2014,09,12,05,48,5.00
2014,09,12,05,49,5.00
2014,09,12,05,50,5.00
2014,09,12,05,51,4.90
2014,09,12,05,52,4.90
2014,09,12,05,53,4.90
2014,09,12,05,54,4.90
2014,09,12,05,55,4.80
2014,09,12,05,56,4.80
2014,09,12,05,57,4.80
2014,09,12,05,58,4.80
2014,09,12,05,59,4.80
2014,09,12,06,00,4.80
2014,09,12,06,01,4.80
2014,09,12,06,02,4.70
2014,09,12,06,03,4.70
2014,09,12,06,04,4.70
2014,09,12,06,05,4.70
2014,09,12,06,06,4.70
2014,09,12,06,07,4.70
2014,09,12,06,08,4.70
2014,09,12,06,09,4.70
2014,09,12,06,10,4.70
2014,09,12,06,11,4.70
2014,09,12,06,12,4.70
2014,09,12,06,13,4.70
2014,09,12,06,14,4.70
2014,09,12,06,15,4.70
2014,09,12,06,16,4.70
2014,09,12,06,17,4.70
2014,09,12,06,18,4.70
2014,09,12,06,19,4.70
2014,09,12,06,20,4.70
2014,09,12,06,21,4.70
2014,09,12,06,22,4.70
2014,09,12,06,23,4.70
2014,09,12,06,24,4.70
2014,09,12,06,25,4.70
2014,09,12,06,26,4.70
2014,09,12,06,27,4.70
2014,09,12,06,28,4.70
2014,09,12,06,29,4.70
2014,09,12,06,30,4.70
2014,09,12,06,31,4.70
2014,09,12,06,32,4.70
2014,09,12,06,33,4.70
2014,09,12,06,34,4.70
2014,09,12,06,35,4.70
2014,09,12,06,36,4.70
2014,09,12,06,37,4.70
2014,09,12,06,38,4.70
2014,09,12,06,39,4.70
2014,09,12,06,40,4.70
2014,09,12,06,41,4.70
2014,09,12,06,42,4.80
2014,09,12,06,43,4.80
2014,09,12,06,44,4.80
2014,09,12,06,45,4.80
2014,09,12,06,46,4.80
2014,09,12,06,47,4.80
2014,09,12,06,48,4.80
2014,09,12,06,49,4.90
2014,09,12,06,50,4.90
2014,09,12,06,51,4.90
2014,09,12,06,52,4.80
2014,09,12,06,53,4.80
2014,09,12,06,54,4.80
2014,09,12,06,55,4.80
2014,09,12,06,56,4.80
2014,09,12,06,57,4.80
2014,09,12,06,58,4.80
2014,09,12,06,59,4.80
2014,09,12,07,00,4.80
2014,09,12,07,01,4.80
2014,09,12,07,02,4.80
2014,09,12,07,03,4.80
2014,09,12,07,04,4.80
2014,09,12,07,05,4.80
2014,09,12,07,06,4.80
2014,09,12,07,07,4.80
2014,09,12,07,08,4.80
2014,09,12,07,09,4.80
2014,09,12,07,10,4.80
2014,09,12,07,11,4.80
2014,09,12,07,12,4.80
2014,09,12,07,13,4.80
2014,09,12,07,14,4.80
2014,09,12,07,15,4.80
2014,09,12,07,16,4.80
2014,09,12,07,17,4.80
2014,09,12,07,18,4.80
2014,09,12,07,19,4.80
2014,09,12,07,20,4.80
2014,09,12,07,21,4.80
2014,09,12,07,22,4.80
2014,09,12,07,23,4.80
2014,09,12,07,24,4.80
2014,09,12,07,25,4.80
2014,09,12,07,26,4.80
2014,09,12,07,27,4.70
2014,09,12,07,28,4.70
2014,09,12,07,29,4.70
2014,09,12,07,30,4.70
2014,09,12,07,31,4.70
2014,09,12,07,32,4.80
2014,09,12,07,33,4.80
2014,09,12,07,34,4.80
2014,09,12,07,35,4.80
2014,09,12,07,36,4.80
2014,09,12,07,37,4.80
2014,09,12,07,38,4.80
2014,09,12,07,39,4.90
2014,09,12,07,40,4.90
2014,09,12,07,41,4.90
2014,09,12,07,42,4.90
2014,09,12,07,43,5.00
2014,09,12,07,44,5.00
2014,09,12,07,45,5.00
2014,09,12,07,46,5.00
2014,09,12,07,47,5.00
2014,09,12,07,48,5.10
2014,09,12,07,49,5.10
2014,09,12,07,50,5.10
2014,09,12,07,51,5.10
2014,09,12,07,52,5.10
2014,09,12,07,53,5.20
2014,09,12,07,54,5.20
2014,09,12,07,55,5.20
2014,09,12,07,56,5.20
2014,09,12,07,57,5.30
2014,09,12,07,58,5.30
2014,09,12,07,59,5.30
2014,09,12,08,00,5.40
2014,09,12,08,01,5.40
2014,09,12,08,02,5.50
2014,09,12,08,03,5.50
2014,09,12,08,04,5.60
2014,09,12,08,05,5.60
2014,09,12,08,06,5.70
2014,09,12,08,07,5.80
2014,09,12,08,08,5.90
2014,09,12,08,09,6.00
2014,09,12,08,10,6.10
2014,09,12,08,11,6.20
2014,09,12,08,12,6.30
2014,09,12,08,13,6.40
2014,09,12,08,14,6.50
2014,09,12,08,15,6.60
2014,09,12,08,16,6.60
2014,09,12,08,17,6.70
2014,09,12,08,18,6.70
2014,09,12,08,19,6.80
2014,09,12,08,20,6.80
2014,09,12,08,21,6.80
2014,09,12,08,22,6.80
2014,09,12,08,23,6.90
2014,09,12,08,24,6.90
2014,09,12,08,25,7.00
2014,09,12,08,26,7.00
2014,09,12,08,27,7.10
2014,09,12,08,28,7.10
2014,09,12,08,29,7.10
2014,09,12,08,30,7.20
2014,09,12,08,31,7.20
2014,09,12,08,32,7.20
2014,09,12,08,33,7.20
2014,09,12,08,34,7.30
2014,09,12,08,35,7.40
2014,09,12,08,36,7.50
2014,09,12,08,37,7.60
2014,09,12,08,38,7.60
2014,09,12,08,39,7.70
2014,09,12,08,40,7.80
2014,09,12,08,41,7.80
2014,09,12,08,42,7.90
2014,09,12,08,43,8.00
2014,09,12,08,44,8.10
2014,09,12,08,45,8.20
2014,09,12,08,46,8.30
2014,09,12,08,47,8.40
2014,09,12,08,48,8.50
2014,09,12,08,49,8.50
2014,09,12,08,50,8.60
2014,09,12,08,51,8.70
2014,09,12,08,52,8.80
2014,09,12,08,53,8.90
2014,09,12,08,54,9.00
2014,09,12,08,55,9.00
2014,09,12,08,56,9.10
2014,09,12,08,57,9.20
2014,09,12,08,58,9.20
2014,09,12,08,59,9.30
2014,09,12,09,00,9.40
2014,09,12,09,01,9.50
2014,09,12,09,02,9.60
2014,09,12,09,03,9.70
2014,09,12,09,04,9.80
2014,09,12,09,05,9.90
2014,09,12,09,06,10.10
2014,09,12,09,07,10.20
2014,09,12,09,08,10.30
2014,09,12,09,09,10.40
2014,09,12,09,10,10.40
2014,09,12,09,11,10.50
2014,09,12,09,12,10.60
2014,09,12,09,13,10.60
2014,09,12,09,14,10.70
2014,09,12,09,15,10.80
2014,09,12,09,16,11.00
2014,09,12,09,17,11.10
2014,09,12,09,18,11.30
2014,09,12,09,19,11.40
2014,09,12,09,20,11.50
2014,09,12,09,21,11.50
2014,09,12,09,22,11.60
2014,09,12,09,23,11.70
2014,09,12,09,24,11.70
2014,09,12,09,25,11.80
2014,09,12,09,26,11.80
2014,09,12,09,27,11.90
2014,09,12,09,28,11.90
2014,09,12,09,29,11.90
2014,09,12,09,30,12.00
2014,09,12,09,31,12.10
2014,09,12,09,32,12.10
2014,09,12,09,33,12.20
2014,09,12,09,34,12.30
2014,09,12,09,35,12.30
2014,09,12,09,36,12.40
2014,09,12,09,37,12.50
2014,09,12,09,38,12.60
2014,09,12,09,39,12.70
2014,09,12,09,40,12.80
2014,09,12,09,41,12.90
2014,09,12,09,42,12.90
2014,09,12,09,43,13.00
2014,09,12,09,44,13.10
2014,09,12,09,45,13.10
2014,09,12,09,46,13.20
2014,09,12,09,47,13.30
2014,09,12,09,48,13.40
2014,09,12,09,49,13.50
2014,09,12,09,50,13.70
2014,09,12,09,51,13.80
2014,09,12,09,52,13.80
2014,09,12,09,53,13.90
2014,09,12,09,54,13.90
2014,09,12,09,55,14.00
2014,09,12,09,56,14.00
2014,09,12,09,57,14.10
2014,09,12,09,58,14.20
2014,09,12,09,59,14.30
2014,09,12,10,00,14.50
2014,09,12,10,01,14.60
2014,09,12,10,02,14.70
2014,09,12,10,03,14.80
2014,09,12,10,04,14.80
2014,09,12,10,05,14.90
2014,09,12,10,06,14.90
2014,09,12,10,07,15.00
2014,09,12,10,08,15.00
2014,09,12,10,09,15.00
2014,09,12,10,10,15.00
2014,09,12,10,11,15.00
2014,09,12,10,12,15.10
2014,09,12,10,13,15.10
2014,09,12,10,14,15.20
2014,09,12,10,15,15.20
2014,09,12,10,16,15.30
2014,09,12,10,17,15.30
2014,09,12,10,18,15.40
2014,09,12,10,19,15.40
2014,09,12,10,20,15.40
2014,09,12,10,21,15.40
2014,09,12,10,22,15.40
2014,09,12,10,23,15.50
2014,09,12,10,24,15.50
2014,09,12,10,25,15.60
2014,09,12,10,26,15.60
2014,09,12,10,27,15.70
2014,09,12,10,28,15.70
2014,09,12,10,29,15.70
2014,09,12,10,30,15.80
2014,09,12,10,31,15.80
2014,09,12,10,32,15.80
2014,09,12,10,33,15.90
2014,09,12,10,34,16.00
2014,09,12,10,35,16.10
2014,09,12,10,36,16.20
2014,09,12,10,37,16.30
2014,09,12,10,38,16.30
2014,09,12,10,39,16.40
2014,09,12,10,40,16.40
2014,09,12,10,41,16.40
2014,09,12,10,42,16.50
2014,09,12,10,43,16.60
2014,09,12,10,44,16.60
2014,09,12,10,45,16.70
2014,09,12,10,46,16.70
2014,09,12,10,47,16.70
2014,09,12,10,48,16.60
2014,09,12,10,49,16.60
2014,09,12,10,50,16.70
2014,09,12,10,51,16.70
2014,09,12,10,52,16.80
2014,09,12,10,53,16.80
2014,09,12,10,54,16.80
2014,09,12,10,55,16.80
2014,09,12,10,56,16.90
2014,09,12,10,57,16.90
2014,09,12,10,58,17.00
2014,09,12,10,59,17.10
2014,09,12,11,00,17.20
2014,09,12,11,01,17.20
2014,09,12,11,02,17.20
2014,09,12,11,03,17.20
2014,09,12,11,04,17.20
2014,09,12,11,05,17.20
2014,09,12,11,06,17.20
2014,09,12,11,07,17.20
2014,09,12,11,08,17.20
2014,09,12,11,09,17.20
2014,09,12,11,10,17.20
2014,09,12,11,11,17.30
2014,09,12,11,12,17.40
2014,09,12,11,13,17.50
2014,09,12,11,14,17.50
2014,09,12,11,15,17.60
2014,09,12,11,16,17.60
2014,09,12,11,17,17.70
2014,09,12,11,18,17.70
2014,09,12,11,19,17.80
2014,09,12,11,20,17.90
2014,09,12,11,21,17.90
2014,09,12,11,22,17.90
2014,09,12,11,23,17.90
2014,09,12,11,24,17.90
2014,09,12,11,25,17.90
2014,09,12,11,26,18.00
2014,09,12,11,27,18.10
2014,09,12,11,28,18.10
2014,09,12,11,29,18.10
2014,09,12,11,30,18.20
2014,09,12,11,31,18.20
2014,09,12,11,32,18.30
2014,09,12,11,33,18.50
2014,09,12,11,34,18.60
2014,09,12,11,35,18.70
2014,09,12,11,36,18.80
2014,09,12,11,37,18.90
2014,09,12,11,38,18.90
2014,09,12,11,39,19.00
2014,09,12,11,40,19.10
2014,09,12,11,41,19.10
2014,09,12,11,42,19.20
2014,09,12,11,43,19.30
2014,09,12,11,44,19.50
2014,09,12,11,45,19.60
2014,09,12,11,46,19.70
2014,09,12,11,47,19.90
2014,09,12,11,48,20.00
2014,09,12,11,49,20.00
2014,09,12,11,50,20.10
2014,09,12,11,51,20.10
2014,09,12,11,52,20.20
2014,09,12,11,53,20.40
2014,09,12,11,54,20.50
2014,09,12,11,55,20.60
2014,09,12,11,56,20.70
2014,09,12,11,57,20.80
2014,09,12,11,58,20.90
2014,09,12,11,59,20.90
2014,09,12,12,00,21.00
2014,09,12,12,01,21.10
2014,09,12,12,02,21.10
2014,09,12,12,03,21.20
2014,09,12,12,04,21.20
2014,09,12,12,05,21.20
2014,09,12,12,06,21.30
2014,09,12,12,07,21.30
2014,09,12,12,08,21.40
2014,09,12,12,09,21.40
2014,09,12,12,10,21.40
2014,09,12,12,11,21.40
2014,09,12,12,12,21.40
2014,09,12,12,13,21.50
2014,09,12,12,14,21.60
2014,09,12,12,15,21.60
2014,09,12,12,16,21.70
2014,09,12,12,17,21.80
2014,09,12,12,18,21.90
2014,09,12,12,19,22.00
2014,09,12,12,20,22.00
2014,09,12,12,21,22.00
2014,09,12,12,22,22.00
2014,09,12,12,23,21.90
2014,09,12,12,24,21.90
2014,09,12,12,25,21.90
2014,09,12,12,26,21.90
2014,09,12,12,27,21.80
2014,09,12,12,28,21.80
2014,09,12,12,29,21.80
2014,09,12,12,30,21.90
2014,09,12,12,31,21.90
2014,09,12,12,32,21.90
2014,09,12,12,33,22.00
2014,09,12,12,34,22.00
2014,09,12,12,35,22.10
2014,09,12,12,36,22.10
2014,09,12,12,37,22.10
2014,09,12,12,38,22.10
2014,09,12,12,39,22.20
2014,09,12,12,40,22.20
2014,09,12,12,41,22.30
2014,09,12,12,42,22.30
2014,09,12,12,43,22.40
2014,09,12,12,44,22.40
2014,09,12,12,45,22.50
2014,09,12,12,46,22.50
2014,09,12,12,47,22.60
2014,09,12,12,48,22.60
2014,09,12,12,49,22.70
2014,09,12,12,50,22.70
2014,09,12,12,51,22.60
2014,09,12,12,52,22.70
2014,09,12,12,53,22.70
2014,09,12,12,54,22.70
2014,09,12,12,55,22.80
2014,09,12,12,56,22.80
2014,09,12,12,57,22.70
2014,09,12,12,58,22.70
2014,09,12,12,59,22.70
2014,09,12,13,00,22.70
2014,09,12,13,01,22.70
2014,09,12,13,02,22.70
2014,09,12,13,03,22.80
2014,09,12,13,04,22.90
2014,09,12,13,05,23.00
2014,09,12,13,06,23.10
2014,09,12,13,07,23.20
2014,09,12,13,08,23.20
2014,09,12,13,09,23.20
2014,09,12,13,10,23.20
2014,09,12,13,11,23.30
2014,09,12,13,12,23.30
2014,09,12,13,13,23.30
2014,09,12,13,14,23.30
2014,09,12,13,15,23.40
2014,09,12,13,16,23.40
2014,09,12,13,17,23.40
2014,09,12,13,18,23.40
2014,09,12,13,19,23.40
2014,09,12,13,20,23.50
2014,09,12,13,21,23.50
2014,09,12,13,22,23.60
2014,09,12,13,23,23.60
2014,09,12,13,24,23.70
2014,09,12,13,25,23.70
2014,09,12,13,26,23.70
2014,09,12,13,27,23.60
2014,09,12,13,28,23.60
2014,09,12,13,29,23.60
2014,09,12,13,30,23.70
2014,09,12,13,31,23.70
2014,09,12,13,32,23.70
2014,09,12,13,33,23.80
2014,09,12,13,34,23.80
2014,09,12,13,35,23.90
2014,09,12,13,36,24.00
2014,09,12,13,37,24.10
2014,09,12,13,38,24.10
2014,09,12,13,39,24.20
2014,09,12,13,40,24.20
2014,09,12,13,41,24.20
2014,09,12,13,42,24.30
2014,09,12,13,43,24.40
2014,09,12,13,44,24.40
2014,09,12,13,45,24.40
2014,09,12,13,46,24.30
2014,09,12,13,47,24.30
2014,09,12,13,48,24.30
2014,09,12,13,49,24.30
2014,09,12,13,50,24.40
2014,09,12,13,51,24.40
2014,09,12,13,52,24.50
2014,09,12,13,53,24.60
2014,09,12,13,54,24.60
2014,09,12,13,55,24.50
2014,09,12,13,56,24.40
2014,09,12,13,57,24.40
2014,09,12,13,58,24.40
2014,09,12,13,59,24.40
2014,09,12,14,00,24.40
2014,09,12,14,01,24.40
2014,09,12,14,02,24.40
2014,09,12,14,03,24.50
2014,09,12,14,04,24.50
2014,09,12,14,05,24.50
2014,09,12,14,06,24.50
2014,09,12,14,07,24.50
2014,09,12,14,08,24.50
2014,09,12,14,09,24.40
2014,09,12,14,10,24.40
2014,09,12,14,11,24.40
2014,09,12,14,12,24.40
2014,09,12,14,13,24.40
2014,09,12,14,14,24.40
2014,09,12,14,15,24.40
2014,09,12,14,16,24.40
2014,09,12,14,17,24.40
2014,09,12,14,18,24.40
2014,09,12,14,19,24.50
2014,09,12,14,20,24.60
2014,09,12,14,21,24.60
2014,09,12,14,22,24.70
2014,09,12,14,23,24.70
2014,09,12,14,24,24.70
2014,09,12,14,25,24.70
2014,09,12,14,26,24.70
2014,09,12,14,27,24.70
2014,09,12,14,28,24.70
2014,09,12,14,29,24.70
2014,09,12,14,30,24.70
2014,09,12,14,31,24.80
2014,09,12,14,32,24.90
2014,09,12,14,33,24.90
2014,09,12,14,34,25.00
2014,09,12,14,35,25.00
2014,09,12,14,36,25.00
2014,09,12,14,37,25.10
2014,09,12,14,38,25.10
2014,09,12,14,39,25.10
2014,09,12,14,40,25.10
2014,09,12,14,41,25.10
2014,09,12,14,42,25.10
2014,09,12,14,43,25.10
2014,09,12,14,44,25.10
2014,09,12,14,45,25.10
2014,09,12,14,46,25.10
2014,09,12,14,47,25.10
2014,09,12,14,48,25.10
2014,09,12,14,49,25.20
2014,09,12,14,50,25.20
2014,09,12,14,51,25.30
2014,09,12,14,52,25.30
2014,09,12,14,53,25.30
2014,09,12,14,54,25.30
2014,09,12,14,55,25.30
2014,09,12,14,56,25.20
2014,09,12,14,57,25.20
2014,09,12,14,58,25.20
2014,09,12,14,59,25.20
2014,09,12,15,00,25.30
2014,09,12,15,01,25.30
2014,09,12,15,02,25.40
2014,09,12,15,03,25.40
2014,09,12,15,04,25.50
2014,09,12,15,05,25.40
2014,09,12,15,06,25.40
2014,09,12,15,07,25.40
2014,09,12,15,08,25.40
2014,09,12,15,09,25.40
2014,09,12,15,10,25.40
2014,09,12,15,11,25.40
2014,09,12,15,12,25.50
2014,09,12,15,13,25.50
2014,09,12,15,14,25.50
2014,09,12,15,15,25.40
2014,09,12,15,16,25.40
2014,09,12,15,17,25.40
2014,09,12,15,18,25.40
2014,09,12,15,19,25.40
2014,09,12,15,20,25.40
2014,09,12,15,21,25.40
2014,09,12,15,22,25.40
2014,09,12,15,23,25.40
2014,09,12,15,24,25.40
2014,09,12,15,25,25.40
2014,09,12,15,26,25.40
2014,09,12,15,27,25.60
2014,09,12,15,28,25.60
2014,09,12,15,29,25.70
2014,09,12,15,30,25.70
2014,09,12,15,31,25.70
2014,09,12,15,32,25.70
2014,09,12,15,33,25.70
2014,09,12,15,34,25.80
2014,09,12,15,35,25.80
2014,09,12,15,36,25.80
2014,09,12,15,37,25.80
2014,09,12,15,38,25.80
2014,09,12,15,39,25.90
2014,09,12,15,40,25.90
2014,09,12,15,41,26.00
2014,09,12,15,42,26.00
2014,09,12,15,43,26.00
2014,09,12,15,44,26.00
2014,09,12,15,45,26.00
2014,09,12,15,46,26.00
2014,09,12,15,47,26.10
2014,09,12,15,48,26.10
2014,09,12,15,49,26.20
2014,09,12,15,50,26.20
2014,09,12,15,51,26.20
2014,09,12,15,52,26.20
2014,09,12,15,53,26.20
2014,09,12,15,54,26.10
2014,09,12,15,55,26.10
2014,09,12,15,56,26.10
2014,09,12,15,57,26.10
2014,09,12,15,58,26.10
2014,09,12,15,59,26.10
2014,09,12,16,00,26.20
2014,09,12,16,01,26.20
2014,09,12,16,02,26.20
2014,09,12,16,03,26.20
2014,09,12,16,04,26.30
2014,09,12,16,05,26.30
2014,09,12,16,06,26.30
2014,09,12,16,07,26.40
2014,09,12,16,08,26.40
2014,09,12,16,09,26.50
2014,09,12,16,10,26.50
2014,09,12,16,11,26.60
2014,09,12,16,12,26.60
2014,09,12,16,13,26.60
2014,09,12,16,14,26.60
2014,09,12,16,15,26.50
2014,09,12,16,16,26.50
2014,09,12,16,17,26.40
2014,09,12,16,18,26.40
2014,09,12,16,19,26.40
2014,09,12,16,20,26.40
2014,09,12,16,21,26.30
2014,09,12,16,22,26.40
2014,09,12,16,23,26.40
2014,09,12,16,24,26.40
2014,09,12,16,25,26.50
2014,09,12,16,26,26.50
2014,09,12,16,27,26.60
2014,09,12,16,28,26.70
2014,09,12,16,29,26.70
2014,09,12,16,30,26.70
2014,09,12,16,31,26.70
2014,09,12,16,32,26.80
2014,09,12,16,33,26.80
2014,09,12,16,34,26.80
2014,09,12,16,35,26.80
2014,09,12,16,36,26.80
2014,09,12,16,37,26.80
2014,09,12,16,38,26.80
2014,09,12,16,39,26.80
2014,09,12,16,40,26.80
2014,09,12,16,41,26.80
2014,09,12,16,42,26.70
2014,09,12,16,43,26.70
2014,09,12,16,44,26.70
2014,09,12,16,45,26.70
2014,09,12,16,46,26.70
2014,09,12,16,47,26.60
2014,09,12,16,48,26.60
2014,09,12,16,49,26.50
2014,09,12,16,50,26.40
2014,09,12,16,51,26.40
2014,09,12,16,52,26.40
2014,09,12,16,53,26.30
2014,09,12,16,54,26.30
2014,09,12,16,55,26.30
2014,09,12,16,56,26.20
2014,09,12,16,57,26.20
2014,09,12,16,58,26.20
2014,09,12,16,59,26.20
2014,09,12,17,00,26.20
2014,09,12,17,01,26.20
2014,09,12,17,02,26.30
2014,09,12,17,03,26.30
2014,09,12,17,04,26.30
2014,09,12,17,05,26.40
2014,09,12,17,06,26.40
2014,09,12,17,07,26.40
2014,09,12,17,08,26.40
2014,09,12,17,09,26.40
2014,09,12,17,10,26.40
2014,09,12,17,11,26.40
2014,09,12,17,12,26.40
2014,09,12,17,13,26.40
2014,09,12,17,14,26.50
2014,09,12,17,15,26.50
2014,09,12,17,16,26.50
2014,09,12,17,17,26.50
2014,09,12,17,18,26.60
2014,09,12,17,19,26.60
2014,09,12,17,20,26.60
2014,09,12,17,21,26.60
2014,09,12,17,22,26.70
2014,09,12,17,23,26.60
2014,09,12,17,24,26.60
2014,09,12,17,25,26.60
2014,09,12,17,26,26.60
2014,09,12,17,27,26.60
2014,09,12,17,28,26.50
2014,09,12,17,29,26.50
2014,09,12,17,30,26.50
2014,09,12,17,31,26.50
2014,09,12,17,32,26.50
2014,09,12,17,33,26.50
2014,09,12,17,34,26.40
2014,09,12,17,35,26.40
2014,09,12,17,36,26.30
2014,09,12,17,37,26.30
2014,09,12,17,38,26.30
2014,09,12,17,39,26.30
2014,09,12,17,40,26.40
2014,09,12,17,41,26.40